Regional Weather Roundup
Issued by NWS

Home | Current Version | Previous Version | Text Only | Print | Product List | Glossary Off
Versions: 1 2 3 4 5 6 7 8 9 10 11 12 13 14 15 16 17 18 19 20 21 22 23 24 25 26 27

000
ASUS45 KTFX 052110
RWRMT
MONTANA REGIONAL WEATHER ROUNDUP
NATIONAL WEATHER SERVICE GREAT FALLS MT
300 PM MDT THU MAY 05 2016

NOTE: "FAIR" INDICATES FEW OR NO CLOUDS BELOW 12000 FEET WITH NO
SIGNIFICANT WEATHER AND/OR OBSTRUCTIONS TO VISIBILITY.

MTZ001>007-043-052200-
WEST OF THE DIVIDE

CITY           SKY/WX    TMP DP  RH WIND       PRES   REMARKS
KALISPELL      MOSUNNY   76  42  29 CALM      29.87F
MISSOULA       CLOUDY    77  43  29 VRB7      29.86F
BUTTE          CLOUDY    73  26  17 S15       29.96S
MULLAN PASS    PTSUNNY   60  41  49 VRB6      30.00S
ANACONDA         N/A     72  36  26 NE5       29.92F
DEER LODGE       N/A     73  37  27 CALM      29.93F
EUREKA           N/A     70  46  43 W6        29.92S
HAMILTON         N/A     72  39  30 N3        29.86F
LIBBY            N/A     73  45  35 W5        29.89S
PLAINS           N/A     78  49  36 S3        29.86F
$$

MTZ008-052>055-052200-
SOUTHWEST MONTANA

CITY           SKY/WX    TMP DP  RH WIND       PRES   REMARKS
BOZEMAN        CLOUDY    80  36  20 VRB5      29.90F
DILLON         CLOUDY    76  36  23 N9        29.91F
ENNIS          MOSUNNY   75  27  16 S21G26    29.99F
THREE FORKS      N/A     79 -39   1 NE6       29.90F
TWIN BRIDGES     N/A     76  33  20 CALM      29.92F
$$

MTZ009-010-012-014-046-048-049-054-052200-
EAST SLOPES AND CENTRAL MONTANA

CITY           SKY/WX    TMP DP  RH WIND       PRES   REMARKS
CUT BANK         N/A     70  42  36 N15       29.95R
GREAT FALLS    MOSUNNY   78  41  26 NW7       29.87F
MALMSTROM AFB  CLOUDY    77  39  25 NW7       29.87F
HELENA         CLOUDY    79  35  20 E14       29.87F
CHOTEAU          N/A     75  37  25 N7        29.91S
CONRAD           N/A     78  47  33 N9        29.94R
$$

MTZ011-013-016-021-045-047-050-051-052200-
NORTH CENTRAL MONTANA

CITY           SKY/WX    TMP DP  RH WIND       PRES   REMARKS
HAVRE          MOSUNNY   82  42  24 NW5       29.83S
LEWISTOWN      CLOUDY    77  40  26 NE6       29.91S
N BAR RANCH      N/A     79  34  19 NW14      29.93F
$$

MTZ017>020-022>027-061-062-052200-
NORTHEAST MONTANA

CITY           SKY/WX    TMP DP  RH WIND       PRES   REMARKS
GLASGOW        MOSUNNY   85  41  21 NW10      29.79F
JORDAN           N/A     84  40  21 W7        29.82F
SIDNEY         CLOUDY    88  39  18 SW8       29.79F
WOLF POINT     CLOUDY    87  49  26 W10       29.78S
POPLAR           N/A     88  39  18 SW14      29.78S
SCOBEY           N/A     87  35  15 W16       29.79S
$$

MTZ028>42-056>058-052200-
SOUTHCENTRAL AND SOUTHEAST MONTANA

CITY           SKY/WX    TMP DP  RH WIND       PRES   REMARKS
BAKER          PTSUNNY   85  35  16 S10G17    29.87S
BILLINGS       PTSUNNY   84  30  14 SW10      29.89F
LIVINGSTON     CLOUDY    80  30  16 SW13G20   29.90F
MILES CITY     CLOUDY    87  39  18 W10       29.82F
EKALAKA          N/A     83  40  21 E1        29.89F
FORSYTH          N/A     84  39  20 CALM      29.83F
LAUREL           N/A     82  37  20 S1        29.89F
ROUNDUP          N/A     84  34  16 SW12      29.80S
$$

REGIONAL REPORTS...DAKOTAS

CITY           SKY/WX    TMP DP  RH WIND       PRES   REMARKS
WILLISTON      CLOUDY    89  39  17 SW12      29.78F
MINOT          SUNNY     94  34  12 SW10      29.76F
DICKINSON      SUNNY     84  35  17 MISG      29.83F
BEACH            N/A     84  32  15 W10       29.87F
CROSBY           N/A     90  34  13 SW15G24   29.77S
TIOGA            N/A     86  32  14 SW15G23   29.83F
WATFORD CITY     N/A     90  36  14 SW12      29.80F
BISMARCK       SUNNY     87  45  23 S6G16     29.82F
GRAND FORKS    MOSUNNY   92  38  15 W18G25    29.74F
FARGO          SUNNY     90  36  14 SW20      29.79F
BUFFALO SD       N/A     86  38  18 S8        29.82F
RAPID CITY     SUNNY     82  45  27 SE10      29.90F
$$

REGIONAL REPORTS...WYOMING/IDAHO/WASHINGTON

CITY           SKY/WX    TMP DP  RH WIND       PRES   REMARKS
GILLETTE       CLOUDY    76  46  34 SW7       29.95S
SHERIDAN       CLOUDY    83  38  20 NE7       29.92S
BUFFALO WY     CLOUDY    81  32  17 E7        29.98F
CODY           CLOUDY    77  30  18 S5        29.97F
YELLOWSTONE LA   N/A     57  26  30 VRB3      30.16F
IDAHO FALLS    CLOUDY    82  25  12 S9G21     29.90F
SALMON         MOSUNNY   75  37  25 W5        29.81F
BOISE          MOSUNNY   74  45  35 CALM      29.78F
SPOKANE        PTSUNNY   68  49  50 NW7       29.93S
$$

REGIONAL REPORTS...ALBERTA

CITY           SKY/WX    TMP DP  RH WIND       PRES   REMARKS
EDMONTON       MOSUNNY   59  27  29 W12G17    30.01F
CALGARY        CLOUDY    50  37  62 N13G21    30.08R
LETHBRIDGE     PTSUNNY   66  34  30 N14G23    29.98R
MEDICINE HAT   CLOUDY    73  43  33 NW21G29   29.89R
WATERTON GATE    N/A     61  39  44 NE8         N/A
CARDSTON         N/A     64  34  32 N12G17      N/A
MILK RIVER       N/A     70  41  35 N17G24      N/A
ONEFOUR          N/A     73  41  31 NW20G28     N/A
$$

REGIONAL REPORTS...SASKATCHEWAN

CITY           SKY/WX    TMP DP  RH WIND       PRES   REMARKS
SWIFT CURRENT  SUNNY     82  37  20 NW25      29.80S
REGINA         PTSUNNY   90  37  15 NW20G28   29.70S
SASKATOON      PTSUNNY   81  45  28 N21G28    29.71R
CYPRESS HILLS    N/A     70  39  32 NW12G22     N/A
VAL MARIE        N/A     84  36  17 SW3         N/A
ROCKGLEN         N/A     82  34  17 W9          N/A
ASSINIBOIA       N/A     52  41  66 NW6         N/A
$$




USA.gov is the U.S. government's official web portal to all federal, state and local government web resources and services.